User: anonymous   Login
Location: Newark
(41.4073°N, 2.1486°E)
Time: 11:52:52
(UTC+00:00)
Language:

LightSail 2 - Orbit

View from above orbital plane
View from above orbital plane
View from above satellite
View from above satellite

Ground track
Ground track

The orbit data is extracted from the following two-line orbital elements,

1 44420U 19036AC  20028.99784783  .00005044  00000-0  11185-2 0  9991
2 44420  24.0088 274.3781 0010080  31.4924 328.6175 14.54253923 29834
Epoch (UTC): 28 January 2020 23:56:54
Eccentricity: 0.0010080
inclination: 24.0088°
perigee height: 704 km
apogee height: 719 km
right ascension of ascending node: 274.3781°
argument of perigee: 31.4924°
revolutions per day: 14.54253923
mean anomaly at epoch: 328.6175°
orbit number at epoch: 2983

The dashed part of the orbit path shows where the satellite is in the earth's shadow,  

DLR